When you browse on this site, cookies collect data to enhance your experience and personalize the content and advertising you see.
Visit our Privacy Policy to learn more. By continuing to use the site, you agree to this use of cookies and data.
  • în România
  • Lista ţărilor
  • Pe 7 zile
  • Temperatura apei
  • Meteo pe hartă
  • Widget-uri
  • user-avatar
    Intrare

    Meteo pe oră la San Carlos

    Astăzi, 2 Iunie, Marţi

    Timp Temperatura Precipitaţii Vânt Presiune Umiditate
    00:00 +26°C° 1.4 mm 1 m/s 745 mmHg 95%
    01:00 +25°C° 0 mm 1 m/s 745 mmHg 96%
    02:00 +25°C° 0.1 mm 1 m/s 745 mmHg 96%
    03:00 +25°C° 0.1 mm 1 m/s 745 mmHg 96%
    04:00 +25°C° 0.1 mm 1 m/s 745 mmHg 96%
    05:00 +25°C° 0 mm 1 m/s 745 mmHg 94%
    06:00 +24°C° 0 mm 0 m/s 746 mmHg 92%
    07:00 +25°C° 0 mm 0 m/s 746 mmHg 89%
    08:00 +29°C° 0.1 mm 1 m/s 746 mmHg 80%
    09:00 +30°C° 0.1 mm 2 m/s 746 mmHg 72%
    10:00 +32°C° 0.1 mm 2 m/s 746 mmHg 63%
    11:00 +32°C° 0 mm 2 m/s 746 mmHg 60%
    12:00 +34°C° 0 mm 2 m/s 745 mmHg 58%
    13:00 +35°C° 0 mm 2 m/s 744 mmHg 55%
    14:00 +34°C° 0 mm 2 m/s 744 mmHg 58%
    15:00 +34°C° 0 mm 2 m/s 743 mmHg 60%
    16:00 +33°C° 0 mm 1 m/s 743 mmHg 62%
    17:00 +31°C° 0.1 mm 1 m/s 743 mmHg 70%
    18:00 +29°C° 0.1 mm 1 m/s 744 mmHg 77%
    19:00 +25°C° 0.1 mm 0 m/s 744 mmHg 85%
    20:00 +25°C° 0.1 mm 0 m/s 744 mmHg 87%
    21:00 +24°C° 0.1 mm 0 m/s 745 mmHg 88%
    22:00 +26°C° 0.1 mm 1 m/s 745 mmHg 90%
    23:00 +25°C° 0 mm 1 m/s 745 mmHg 91%

    Mâine, 3 Iunie, Miercuri

    Timp Temperatura Precipitaţii Vânt Presiune Umiditate
    00:00 +25°C° 0 mm 1 m/s 745 mmHg 92%
    01:00 +24°C° 0 mm 1 m/s 744 mmHg 93%
    02:00 +24°C° 0 mm 1 m/s 744 mmHg 92%
    03:00 +24°C° 0 mm 1 m/s 744 mmHg 92%
    04:00 +24°C° 0 mm 1 m/s 744 mmHg 92%
    05:00 +25°C° 0 mm 1 m/s 745 mmHg 89%
    06:00 +26°C° 0 mm 1 m/s 745 mmHg 86%
    07:00 +27°C° 0 mm 1 m/s 746 mmHg 83%
    08:00 +28°C° 0 mm 1 m/s 746 mmHg 74%
    09:00 +30°C° 0 mm 2 m/s 746 mmHg 66%
    10:00 +32°C° 0 mm 2 m/s 746 mmHg 57%
    11:00 +34°C° 0 mm 2 m/s 745 mmHg 56%
    12:00 +34°C° 0 mm 2 m/s 745 mmHg 54%
    13:00 +35°C° 0 mm 2 m/s 744 mmHg 53%
    14:00 +35°C° 0 mm 2 m/s 744 mmHg 55%
    15:00 +33°C° 0 mm 1 m/s 743 mmHg 56%
    16:00 +33°C° 0 mm 1 m/s 742 mmHg 58%
    17:00 +31°C° 0 mm 1 m/s 743 mmHg 65%
    18:00 +29°C° 0 mm 1 m/s 743 mmHg 72%
    19:00 +26°C° 0 mm 0 m/s 744 mmHg 79%
    20:00 +25°C° 0 mm 0 m/s 744 mmHg 80%
    21:00 +25°C° 0 mm 0 m/s 744 mmHg 82%
    22:00 +26°C° 0 mm 1 m/s 745 mmHg 83%
    23:00 +26°C° 0 mm 1 m/s 744 mmHg 84%

    Poimâine, 4 Iunie, Joi

    Timp Temperatura Precipitaţii Vânt Presiune Umiditate
    00:00 +26°C° 0 mm 1 m/s 744 mmHg 85%
    01:00 +26°C° 0 mm 1 m/s 744 mmHg 85%
    02:00 +26°C° 0 mm 1 m/s 744 mmHg 86%
    03:00 +25°C° 0 mm 1 m/s 744 mmHg 86%
    04:00 +25°C° 0 mm 1 m/s 744 mmHg 87%
    05:00 +26°C° 0 mm 1 m/s 745 mmHg 84%
    06:00 +27°C° 0 mm 1 m/s 745 mmHg 82%
    07:00 +28°C° 0 mm 1 m/s 746 mmHg 79%
    08:00 +29°C° 0 mm 1 m/s 746 mmHg 71%
    09:00 +31°C° 0 mm 1 m/s 746 mmHg 62%
    10:00 +34°C° 0 mm 2 m/s 746 mmHg 54%
    11:00 +34°C° 0 mm 2 m/s 746 mmHg 51%
    12:00 +35°C° 0 mm 2 m/s 745 mmHg 48%
    13:00 +36°C° 0 mm 2 m/s 744 mmHg 45%
    14:00 +35°C° 0 mm 2 m/s 744 mmHg 46%
    15:00 +35°C° 0 mm 2 m/s 743 mmHg 47%
    16:00 +34°C° 0 mm 2 m/s 743 mmHg 48%
    17:00 +31°C° 0 mm 1 m/s 743 mmHg 56%
    18:00 +29°C° 0 mm 1 m/s 744 mmHg 64%
    19:00 +25°C° 0 mm 0 m/s 744 mmHg 72%
    20:00 +26°C° 0 mm 1 m/s 745 mmHg 73%
    21:00 +26°C° 0 mm 1 m/s 745 mmHg 74%
    22:00 +26°C° 0 mm 1 m/s 746 mmHg 75%
    23:00 +25°C° 0 mm 1 m/s 745 mmHg 76%

    5 Iunie, Vineri

    Timp Temperatura Precipitaţii Vânt Presiune Umiditate
    00:00 +25°C° 0 mm 1 m/s 745 mmHg 78%
    01:00 +25°C° 0 mm 1 m/s 744 mmHg 79%
    02:00 +24°C° 0 mm 1 m/s 745 mmHg 79%
    03:00 +24°C° 0 mm 1 m/s 745 mmHg 79%
    04:00 +24°C° 0 mm 1 m/s 745 mmHg 80%
    05:00 +23°C° 0 mm 0 m/s 745 mmHg 76%
    06:00 +24°C° 0 mm 0 m/s 746 mmHg 73%
    07:00 +25°C° 0 mm 0 m/s 746 mmHg 70%
    08:00 +29°C° 0 mm 1 m/s 746 mmHg 64%
    09:00 +31°C° 0 mm 1 m/s 746 mmHg 59%
    10:00 +34°C° 0 mm 2 m/s 747 mmHg 53%
    11:00 +35°C° 0 mm 2 m/s 746 mmHg 50%
    12:00 +36°C° 0 mm 2 m/s 745 mmHg 48%
    13:00 +36°C° 0 mm 1 m/s 744 mmHg 45%
    14:00 +35°C° 0 mm 1 m/s 744 mmHg 48%
    15:00 +36°C° 0 mm 2 m/s 744 mmHg 51%
    16:00 +35°C° 0 mm 2 m/s 743 mmHg 54%
    17:00 +32°C° 0.6 mm 1 m/s 744 mmHg 64%
    18:00 +30°C° 0.6 mm 1 m/s 744 mmHg 74%
    19:00 +28°C° 0.6 mm 1 m/s 745 mmHg 84%
    20:00 +27°C° 1 mm 1 m/s 745 mmHg 87%
    21:00 +26°C° 1 mm 1 m/s 745 mmHg 90%
    22:00 +26°C° 1 mm 1 m/s 746 mmHg 93%
    23:00 +26°C° 0.1 mm 1 m/s 745 mmHg 93%

    6 Iunie, Sâmbătă

    Timp Temperatura Precipitaţii Vânt Presiune Umiditate
    00:00 +25°C° 0.1 mm 1 m/s 745 mmHg 94%
    01:00 +25°C° 0.1 mm 1 m/s 745 mmHg 94%
    02:00 +25°C° 0.1 mm 1 m/s 745 mmHg 94%
    03:00 +23°C° 0.1 mm 0 m/s 745 mmHg 95%
    04:00 +23°C° 0.1 mm 0 m/s 745 mmHg 95%
    05:00 +24°C° 0 mm 0 m/s 745 mmHg 92%
    06:00 +24°C° 0 mm 0 m/s 746 mmHg 90%
    07:00 +25°C° 0 mm 0 m/s 746 mmHg 87%
    08:00 +29°C° 0 mm 1 m/s 746 mmHg 79%
    09:00 +31°C° 0 mm 1 m/s 746 mmHg 70%
    10:00 +32°C° 0 mm 2 m/s 746 mmHg 62%
    11:00 +32°C° 1.5 mm 2 m/s 746 mmHg 67%
    12:00 +32°C° 1.5 mm 2 m/s 745 mmHg 72%
    13:00 +31°C° 1.5 mm 1 m/s 744 mmHg 77%
    14:00 +31°C° 2.9 mm 1 m/s 744 mmHg 81%
    15:00 +30°C° 2.9 mm 1 m/s 744 mmHg 85%
    16:00 +29°C° 2.9 mm 1 m/s 744 mmHg 88%
    17:00 +28°C° 0.4 mm 1 m/s 744 mmHg 91%
    18:00 +27°C° 0.4 mm 1 m/s 744 mmHg 93%
    19:00 +26°C° 0.4 mm 1 m/s 745 mmHg 95%
    20:00 +24°C° 0 mm 0 m/s 745 mmHg 95%
    21:00 +24°C° 0 mm 0 m/s 746 mmHg 95%
    22:00 +23°C° 0 mm 0 m/s 746 mmHg 95%
    23:00 +23°C° 0 mm 0 m/s 746 mmHg 95%

    7 Iunie, Duminică

    Timp Temperatura Precipitaţii Vânt Presiune Umiditate
    00:00 +23°C° 0 mm 0 m/s 745 mmHg 95%
    01:00 +23°C° 0 mm 0 m/s 745 mmHg 95%
    02:00 +23°C° 0 mm 0 m/s 745 mmHg 95%
    03:00 +23°C° 0 mm 0 m/s 745 mmHg 95%
    04:00 +22°C° 0 mm 0 m/s 745 mmHg 95%
    05:00 +23°C° 0.1 mm 0 m/s 746 mmHg 93%
    06:00 +24°C° 0.1 mm 0 m/s 746 mmHg 92%
    07:00 +25°C° 0.1 mm 0 m/s 746 mmHg 90%
    08:00 +28°C° 1.2 mm 1 m/s 747 mmHg 87%
    09:00 +29°C° 1.2 mm 1 m/s 747 mmHg 84%
    10:00 +30°C° 1.2 mm 1 m/s 747 mmHg 81%
    11:00 +30°C° 2.4 mm 1 m/s 746 mmHg 80%
    12:00 +30°C° 2.4 mm 1 m/s 745 mmHg 80%
    13:00 +31°C° 2.4 mm 1 m/s 745 mmHg 79%
    14:00 +31°C° 0.3 mm 1 m/s 744 mmHg 77%
    15:00 +31°C° 0.3 mm 1 m/s 744 mmHg 75%
    16:00 +31°C° 0.3 mm 1 m/s 743 mmHg 73%
    17:00 +29°C° 0.9 mm 1 m/s 744 mmHg 79%
    18:00 +28°C° 0.9 mm 1 m/s 744 mmHg 85%
    19:00 +27°C° 0.9 mm 1 m/s 745 mmHg 90%
    20:00 +26°C° 0.4 mm 1 m/s 745 mmHg 92%
    21:00 +24°C° 0.4 mm 0 m/s 746 mmHg 93%
    22:00 +24°C° 0.4 mm 0 m/s 746 mmHg 94%
    23:00 +24°C° 0.4 mm 0 m/s 746 mmHg 94%
    Arată mai mult